Location: Cadelbosco
(44.7667°N, 10.6000°E)
Time: 14:51:06
(UTC+00:00)

Daily predictions for brighter satellites

Satellite Brightness Start Highest point End
(mag) Time Altitude Azimuth Time Altitude Azimuth Time Altitude Azimuth
Cosmos 909 Rocket 4.1 18:33:43 10° SSW 18:39:56 58° ESE 18:46:11 10° NE
Cosmos 405 Rocket 3.7 18:38:25 10° N 18:41:59 30° ENE 18:45:28 10° SE
Cosmos 2237 Rocket 3.0 18:38:09 10° NNW 18:43:20 36° NE 18:48:28 10° ESE
Helios 1A Rocket 3.1 18:41:07 10° S 18:45:11 79° WSW 18:49:20 10° NNW
Cosmos 1818 3.6 18:41:04 10° SSW 18:46:29 83° ESE 18:52:00 10° NE
DMSP B5D2-2 4.1 18:43:35 10° NNE 18:48:52 84° ESE 18:54:08 10° SSW
H-2A R/B 4.2 18:45:10 10° SSW 18:49:24 27° W 18:53:36 10° NW
Cosmos 1892 3.7 18:49:36 10° NNW 18:53:16 49° W 18:56:57 10° S
Cosmos 1825 2.1 18:51:06 10° N 18:54:54 74° E 18:58:40 10° SSE
MetOp-A 4.2 18:52:06 10° SSE 18:57:28 89° W 19:02:51 10° NNW
Cosmos 2227 Rocket 3.1 18:53:22 10° SSE 18:57:58 26° ESE 19:02:36 10° NE
Exosat Rocket 3.7 18:52:12 10° NNW 18:58:29 81° ENE 19:03:32 10° SSE
Abrixas rocket 2.0 18:57:35 10° W 18:59:03 31° NNW 19:00:32 10° NE
ATLAS 2AS CENTAUR R/B 3.9 18:52:31 10° WSW 19:00:16 56° NW 19:07:53 10° NNE
BREEZE-M DEB (TANK) 4.1 18:57:40 10° W 19:00:37 64° NNW 19:07:59 10° ENE
Cosmos 1092 Rocket 4.2 18:55:40 10° N 19:01:56 80° W 19:08:06 10° S
Cosmos 2297 Rocket 2.7 18:59:20 10° S 19:04:29 38° ESE 19:09:40 10° NE
Cosmos 2058 2.9 19:00:20 10° N 19:04:32 87° E 19:08:41 10° S
FALCON 9 DEB 3.5 19:03:08 10° SSW 19:05:55 32° SE 19:08:42 10° ENE
Cosmos 1633 3.8 19:04:11 10° NNE 19:07:10 24° ENE 19:09:15 15° ESE
Lacrosse 5 rocket 4.0 19:05:15 10° NW 19:07:50 16° N 19:10:28 10° NE
FALCON 9 DEB 3.1 19:07:41 10° SW 19:10:35 44° SE 19:13:29 10° ENE
Resurs 01 Rocket 2.5 19:08:36 13° SE 19:12:02 33° ENE 19:16:03 10° N
Cosmos 2219 3.6 19:08:25 10° S 19:13:37 40° ESE 19:18:50 10° NE
Resurs 1-3 3.7 19:09:25 10° SSE 19:13:42 57° ENE 19:18:01 10° N
Genesis I 4.2 19:11:16 10° NNW 19:14:59 35° NE 19:17:40 16° ESE
BREEZE-M DEB (TANK) 3.9 19:12:06 10° W 19:15:53 65° N 19:29:00 10° ENE
Cosmos 2333 Rocket 3.6 19:11:56 10° NW 19:17:10 37° WSW 19:22:21 10° S
SJ-6B 3.0 19:13:59 10° S 19:17:41 69° WSW 19:21:28 10° NNW
Cosmos 2084 Rocket 3.7 19:18:11 10° S 19:21:52 39° ESE 19:25:38 10° NE
Cosmos 389 Rocket 2.4 19:18:46 10° S 19:22:16 75° E 19:25:51 10° NNE
Cosmos 1190 Rocket 4.4 19:17:34 10° S 19:22:25 40° ESE 19:27:17 10° NE
FALCON 9 DEB 2.7 19:19:38 10° SW 19:22:37 62° SE 19:25:38 10° ENE
ERS-2 4.1 19:20:09 10° N 19:23:27 33° WNW 19:26:43 10° SW
Ariane Rocket 3.0 19:19:01 10° SSE 19:24:04 85° ENE 19:29:09 10° NNW
Cosmos 614 Rocket 4.1 19:20:49 10° SSW 19:25:57 78° WNW 19:31:04 10° NNE
Cosmos 2251 Rocket 4.3 19:22:30 10° SW 19:27:46 57° WNW 19:33:02 10° NNE
ATLAS 3B R/B 3.4 19:25:00 10° NW 19:31:51 55° WSW 19:38:58 10° SSE
Cosmos 2279 Rocket 3.9 19:26:14 10° S 19:32:25 84° E 19:38:39 10° N
SPOT 1/Viking Rocket 4.4 19:33:39 20° ESE 19:36:31 35° ENE 19:41:14 10° N
MOS 1 4.5 19:31:47 10° S 19:37:24 74° WSW 19:43:05 10° NNW
Cosmos-2242 3.4 19:35:48 19° SSE 19:38:36 43° E 19:42:41 10° NNE
Cosmos 1980 3.7 19:34:04 10° NNW 19:39:47 84° WSW 19:44:11 18° SSE
USA 215 4.0 19:34:16 12° E 19:39:53 45° NNE 19:46:02 10° NW
SL-16 R/B 3.0 19:35:07 10° NNW 19:40:23 37° NE 19:43:26 22° ESE
Cosmos 2151 3.0 19:37:24 10° N 19:41:41 62° E 19:44:10 24° SSE
SPOT 3 Rocket 3.6 19:40:39 19° SSE 19:44:19 68° ENE 19:49:29 10° N
FALCON 9 DEB 2.6 19:41:21 10° SW 19:44:25 83° SE 19:46:41 17° ENE
COSMOS 2455 3.2 19:42:15 10° S 19:47:45 39° ESE 19:53:17 10° NE
SL-4 R/B 2.1 19:47:01 10° SW 19:51:21 77° SSE 19:56:01 10° ENE
Cosmos 2219 Rocket 4.4 19:49:44 10° NW 19:53:59 22° W 19:58:13 10° SSW
BREEZE M DEB (TANK) 3.8 19:51:07 10° SSW 19:54:29 48° SE 20:04:02 10° ENE
ERS-1 Rocket 4.2 19:53:53 22° E 19:55:28 26° ENE 19:59:36 10° N
IGS 5A 3.3 19:54:21 29° SSE 19:56:23 79° ENE 20:00:33 10° N
OBJECT-B 3.4 19:55:19 10° SW 19:57:42 19° W 20:00:04 10° NW
Landsat 7 3.8 19:55:13 27° SSE 19:57:46 73° ENE 20:02:32 10° N
Cosmos 1076 Rocket 4.4 19:53:40 10° NNW 19:57:50 47° W 20:01:45 11° SSW
Cosmos 2266 Rocket 4.0 19:52:11 10° N 19:58:33 72° E 20:02:36 23° SSE
ATLAS 5 CENTAUR R/B 3.6 19:59:09 10° WSW 20:00:12 12° SW 20:01:00 11° SSW
Timation 1 Rocket 4.5 19:57:04 10° S 20:02:46 50° ESE 20:08:30 10° NE
Cosmos 2221 4.3 20:05:05 17° ENE 20:05:05 17° ENE 20:07:07 10° NE
ARIANE 5 R/B 3.2 20:04:04 35° ESE 20:05:07 41° ENE 20:09:14 10° N
Cosmos 2344 4.5 19:58:43 10° WSW 20:05:55 50° NW 20:13:46 10° NE
USA 245 3.3 20:05:50 46° E 20:06:00 47° ENE 20:08:59 10° N
Cosmos 407 Rocket 3.9 20:01:28 10° SSW 20:06:33 64° WNW 20:11:43 10° NNE
MetOp-B 4.1 20:09:17 29° SSE 20:12:09 89° ENE 20:17:33 10° NNW
Meteor 2-3 Rocket 3.7 20:08:46 10° NNW 20:14:33 83° W 20:17:47 27° S
Meteor 1-27 4.2 20:14:09 20° S 20:18:11 78° E 20:24:02 10° NNE
Cosmos 44 Rocket 3.4 20:13:17 10° SSW 20:18:15 60° ESE 20:23:22 10° NE
Cosmos 1140 Rocket 4.1 20:14:49 10° SW 20:19:50 56° WNW 20:24:54 10° NNE
Cosmos 1954 Rocket 3.8 20:19:29 15° SSW 20:23:52 85° ESE 20:29:04 10° NNE
CZ-2C R/B 3.7 20:20:44 10° N 20:25:11 77° WNW 20:27:43 25° SSW
Timation 2 Rocket 4.3 20:20:22 10° SW 20:26:54 69° WNW 20:33:13 10° NNE
Cosmos 2237 Rocket 3.3 20:22:14 10° NW 20:27:24 38° WSW 20:30:47 19° SSW
Meteor 2-15 4.5 20:29:12 41° SE 20:31:01 57° E 20:36:56 10° NNE
Cosmos 2263 Rocket 3.6 20:34:38 22° ENE 20:34:38 22° ENE 20:37:24 10° NE
Spot 2 Rocket 3.4 20:32:07 49° SSE 20:33:32 84° ENE 20:38:38 10° NNW
CARTOSAT-1 3.4 20:33:27 65° ESE 20:33:51 71° ENE 20:38:09 10° N
BREEZE M DEB (TANK) 3.2 20:28:51 10° W 20:35:28 49° NNW 20:36:34 32° NE
Cosmos 1766 Rocket 3.4 20:31:23 10° N 20:35:45 85° W 20:36:22 65° S
FALCON 9 DEB 4.4 20:38:50 10° W 20:41:38 35° NNW 20:41:38 35° NNW
Cosmos 2227 Rocket 3.1 20:36:13 10° SW 20:41:42 50° WNW 20:47:13 10° NNE
Cosmos 2082 3.6 20:37:15 17° SSW 20:41:43 89° WNW 20:47:23 10° NNE
Okean 3 Rocket 3.8 20:40:24 10° NNW 20:44:55 69° W 20:45:39 57° SSW
Lacrosse 5 rocket 3.5 20:44:51 10° NNW 20:48:17 23° NNE 20:49:58 18° NE
Cosmos 1869 3.8 20:47:58 50° WSW 20:48:32 56° WNW 20:52:25 10° N
Cosmos 2297 Rocket 3.7 20:43:22 10° WSW 20:48:32 36° NW 20:53:45 10° NNE
Resurs 01 Rocket 3.5 20:46:10 17° SW 20:48:33 25° W 20:52:17 10° NW
Cosmos 1553 Rocket 4.2 20:48:26 45° ESE 20:48:54 46° E 20:54:42 10° NNE
Meteor 1-4 Rocket 3.3 20:50:30 50° WNW 20:50:30 50° WNW 20:53:41 10° N
Cosmos 468 Rocket 3.8 20:46:02 10° NNW 20:51:12 80° ENE 20:51:46 69° SE
Cosmos 841 Rocket 4.1 20:51:03 10° N 20:56:00 42° ENE 20:56:15 42° ENE
Terra 1.8 21:03:52 73° ENE 21:03:52 73° ENE 21:08:30 10° N
Cosmos 1763 Rocket 3.3 20:58:57 10° NNW 21:04:02 83° WSW 21:04:17 79° SSW
Cosmos 540 Rocket 3.5 21:06:44 10° NNW 21:11:41 63° ENE 21:11:41 63° ENE
Cosmos 921 Rocket 4.1 21:09:02 10° N 21:12:21 37° NE 21:12:21 37° NE
SPOT 5 3.0 21:14:08 64° W 21:14:08 64° W 21:18:53 10° NNW
Meteor 2-2 Rocket 4.2 21:15:41 62° SSW 21:16:41 81° WNW 21:22:24 10° N
NOSS 3-1 (C) 4.0 21:10:27 10° NW 21:18:01 88° NE 21:20:23 53° SE
Cosmos 1842 Rocket 4.0 21:20:26 61° NW 21:20:26 61° NW 21:24:23 10° N
USA 215 3.1 21:21:36 63° SSE 21:22:39 76° SW 21:29:13 10° NW
SL-16 R/B 3.1 21:19:18 10° NW 21:24:29 37° WSW 21:25:19 35° SW
SL-08 ROCKET BODY 4.2 21:25:08 10° N 21:31:12 81° W 21:31:36 76° SSW
SL-4 R/B 3.5 21:27:03 10° W 21:31:22 41° NNW 21:33:32 25° NE
COSMOS 2455 4.0 21:28:00 10° WSW 21:33:39 41° NW 21:39:21 10° NNE
ERS-1 Rocket 3.8 21:33:53 41° WSW 21:34:02 41° W 21:38:48 10° NNW
Cosmos 2227 4.3 21:40:44 69° NE 21:40:44 69° NE 21:45:49 10° NNE
Cosmos 2221 3.8 21:41:54 37° WNW 21:41:54 37° WNW 21:45:24 10° N
Sich 1 4.5 21:38:57 10° N 21:41:28 33° NNE 21:41:28 33° NNE
Cosmos 1943 3.2 21:44:58 10° NNW 21:50:06 74° NNW 21:50:06 74° NNW
Cosmos 1745 Rocket 3.9 21:46:59 10° N 21:53:18 80° W 21:53:25 79° WSW
SeaSat 1 3.9 21:48:49 10° NE 21:51:18 29° NE 21:51:18 29° NE
Cosmos 1570 Rocket 4.3 21:48:49 10° NNW 21:53:15 63° NNW 21:53:15 63° NNW
Cosmos 1709 Rocket 4.0 21:52:20 10° N 21:58:09 66° ENE 21:58:09 66° ENE
S3M 4.1 22:05:25 67° WSW 22:05:47 68° W 22:12:12 10° N
Cosmos 883 Rocket 4.5 22:06:43 75° NE 22:06:43 75° NE 22:12:33 10° N
Cosmos 2263 Rocket 2.8 22:16:15 49° WNW 22:16:29 49° WNW 22:21:54 10° NNE
USA 229 DEB 4.1 22:19:59 10° NW 22:27:01 56° WSW 22:27:01 56° WSW
USA 229 4.1 22:20:05 10° NW 22:27:07 57° WSW 22:27:07 57° WSW
Lacrosse 5 rocket 3.5 22:23:38 10° NW 22:25:35 26° NW 22:25:35 26° NW
Cosmos 1844 Rocket 4.0 22:30:56 30° NE 22:30:56 30° NE 22:33:56 10° NE
ALOS 2 4.3 22:35:37 31° N 22:35:37 31° N 22:37:57 10° N
Terra 4.3 22:42:44 13° W 22:42:44 13° W 22:44:15 10° WNW
NOSS 3-1 (A) 4.4 22:37:47 10° NW 22:45:03 51° WSW 22:45:03 51° WSW
Cosmos 2154 Rocket 4.4 22:58:27 10° N 23:04:10 55° ENE 23:04:10 55° ENE
SJ 16-02 4.2 23:17:22 11° ENE 23:17:22 11° ENE 23:17:37 10° ENE
Cosmos 2184 Rocket 4.2 23:09:31 10° N 23:14:58 68° NNW 23:14:58 68° NNW
Cosmos 2278 Rocket 4.2 23:19:29 18° ENE 23:19:29 18° ENE 23:21:53 10° NE
ATLAS 5 CENTAUR R/B 3.5 23:20:34 10° NNW 23:25:38 37° NE 23:27:06 32° ENE
SeaSat 1 4.2 23:26:54 10° N 23:30:53 25° NW 23:31:05 25° NW
Cosmos 1844 4.3 23:41:40 53° NNW 23:41:40 53° NNW 23:46:26 10° NNE
USA 281 3.2 23:43:08 79° NE 23:43:08 79° NE 23:49:36 10° NNW
COSMOS 2406 4.1 23:39:28 10° NNW 23:44:53 43° ENE 23:44:54 43° ENE
Gbstr 26 Del rocket 4.3 23:53:47 56° ENE 23:53:47 56° ENE 23:58:05 10° ENE
